Regional Weather Roundup
Issued by NWS Nashville, TN

Home | Current Version | Previous Version | Text Only | Print | Product List | Glossary On
Versions: 1 2 3 4 5 6 7 8 9 10 11 12 13 14 15 16 17 18 19 20 21 22 23 24 25 26 27 28 29 30 31 32 33 34 35 36 37 38 39 40 41 42 43 44 45 46 47 48 49 50
000
ASUS44 KOHX 170115
RWROHX
MIDDLE TENNESSEE HOURLY WEATHER ROUNDUP
NATIONAL WEATHER SERVICE NASHVILLE TN
800 PM CDT TUE SEP 16 2014

NOTE: "FAIR" INDICATES FEW OR NO CLOUDS BELOW 12,000 FEET WITH
NO SIGNIFICANT WEATHER AND/OR OBSTRUCTIONS TO VISIBILITY.

* THESE REPORTS ARE NOT UNDER NWS QUALITY CONTROL AND MAY NOT
  REPORT WEATHER SUCH AS PRECIPITATION AND FOG.


TNZ005>011-023>034-057-059-062>066-078-080-170200
...NORTHERN MIDDLE TENNESSEE...

CITY           SKY/WX    TMP DP  RH WIND       PRES   REMARKS
CLARKSVILLE    CLEAR     59  53  80 N6        30.07R
CROSSVILLE     PTCLDY    63  59  87 CALM      30.08S
GALLATIN         N/A     65  60  83 NW6       30.07R
DICKSON        CLEAR     61  55  82 CALM      30.07S
LEBANON        CLEAR     62  60  93 CALM      30.04S
LIVINGSTON     CLEAR     61  59  93 CALM      30.07R
NASHVILLE      PTCLDY    66  59  78 N6        30.06R
WEST NASHVILLE   N/A     64  63  94 NW6       30.06R
PORTLAND       PTCLDY    63  57  82 CALM      30.06R
SMYRNA         PTCLDY    67  63  87 CALM      30.06S
SPARTA           N/A     63  63 100 CALM      30.06R VSB 1
$$
TNZ056-058-060-061-075>077-079-093>097-170200
...SOUTHERN MIDDLE TENNESSEE...

CITY           SKY/WX    TMP DP  RH WIND       PRES   REMARKS
COLUMBIA       CLEAR     66  64  94 CALM      30.05R
FAYETTEVILLE   CLOUDY    66  64  94 N8        30.06R
LEWISBURG      CLEAR     67  64  90 CALM      30.05S
MCMINNVILLE      N/A     64  64 100 CALM      30.06S
SHELBYVILLE    CLOUDY    66  64  94 NE3       30.07R
TULLAHOMA      MOCLDY    66  63  88 N5        30.07R
WINCHESTER     CLOUDY    68  64  88 N6        30.06R
$$


...KEY TO REMARKS...
VSB - VISIBILITY IN MILES
WCI - WIND CHILL INDEX
HX  - HEAT INDEX



USA.gov is the U.S. government's official web portal to all federal, state and local government web resources and services.